Location: Arroyo de Valdeoliva
(40.1604°N, 4.9878°W)
Time: 20:21:21
(UTC+00:00)

Cosmos 2208 Rocket - Pass Details

Date: 11 December 2025
Orbit: 751 x 801 km, 74.0° (Epoch: 12 January)

Event Time Altitude Azimuth Distance (km) Brightness Sun altitude
Rises 17:29:57 0° 338° (NNW) 3,209 7.2 -6.9°
Reaches altitude 10° 17:32:19 10° 336° (NNW) 2,283 6.5 -7.3°
Maximum altitude 17:37:27 70° 254° (WSW) 806 4.4 -8.2°
Drops below altitude 10° 17:42:36 10° 171° (S) 2,288 6.7 -9.1°
Sets 17:44:59 0° 169° (S) 3,217 7.4 -9.5°
